Погода Оловянная

Погода Оловянная : погода сейчас, прогноз погоды и архив. Всё, что Вы хотите узнать о погоде Оловянная!

Хотите узнать прогноз погоды Оловянная? Тогда Вам сюда: Погода Оловянная

Поиск расширенной информации на нашем сайте:

Другие новости

Новости СМИ2

Главная страница сайта

Новости сайта

02.10.2013

Напоминаем, что на нашем новом сайте вы можете получить высокодетализированные прогнозы погоды по пунктам России, СНГ и мира (включающие важные для авиации метеовеличины, такие как направление и скорость ветра, видимость, явления погоды, количество и форма облачности, нижняя и верхняя граница облачности), а также ознакомиться с разнообразными материалами по авиационной метеорологии и подборкой полезных ссылок на эту тему.

Сайт Метеоцентр.Азия посвящён разработке технологий оптимизации авиаметеорологического обслуживания, включая проектирование и перспективное создание нескольких автоматизированных авиаметеорологических систем:
- система выпуска высокодетальных прогностических карт явлений погоды для нижнего воздушного пространства по России и ближнему зарубежью;
- система верификации прогнозов TAF (выпускаемых синоптиками официальных АМСГ РФ и ближнего зарубежья) и AUTOTAF (выпускаемых сайтом Метеоцентр.Азия) - выявление ошибок, онлайн-сопоставление с фактической погодой METAR, автоматическое внесение коррективов в прогнозы при резком отклонении фактической погоды от прогноза, подсчёт оправдываемости прогнозов по элементам и в целом;
- система обработки, анализа и отображения авиаметеорологической информации для применения провайдерами метеорологической информации.

Рекомендуем: Общение на форуме

Погода Оловянная - сегодня

Время (UTC), дата Ветер
(°,м/с) 
Видим.   Явления Облачность Т
(°С)
Тd
(°С)
f(%) Тe
(°С)
Pmin
(гПа)
dP
(гПа)
Po
(мм)
O2
(г/м3)
Тmin Tmax R s Состояние
почвы
06 20.03.17 240 (ЮЗ) 20000 м    ясно 
+3.9 -12.6 29 +3  1027.8  -2.3  713  284           
09 20.03.17 270 (З) 20000 м    ясно 
+4.4 -15 23 +4  1025.7  -1.8  711  283           
12 20.03.17 320 (СЗ) 20000 м    3/0 верхняя 
[Cs]
-2.3 -13.9 41 -3  1027.4  -0.2  711  290    +4.5       
15 20.03.17 150 (ЮВ) 20000 м    ясно 
-5.2 -13.9 50 -5  1027.7  -0.5  711  293           
18 20.03.17 200 (Ю) 20000 м    ясно 
-8.8 -13.7 68 -10  1028  -0.8  710  297           
21 20.03.17 тихо ()   20000 м    ясно 
-10.6 -15 70 -11  1028  -0.5  710  299           
00 21.03.17 350 (С) 20000 м    5/0 верхняя 
[Ci sp]
-5.7 -11.3 65 -8  1027.2  0.7  710  293  -11.4        замёрзшая 
03 21.03.17 350 (С) 20000 м    5/0 верхняя 
[Ci]
-0.9 -10.6 48 -4  1026.1  0.3  710  288           
06 21.03.17 360 (С) 5-10{10}  20000 м    3/0 верхняя 
[Ci sp]
+1.1 -13 34 -2  1024.5  -0.9  710  286           
09 21.03.17 360 (С) 6{11}  20000 м    ясно 
+0.2 -15 31 -3  1025  0.2  710  287           
12 21.03.17 350 (С) 20000 м    ясно 
-3.4 -13.2 47 -3  1026.8  0.7  710  291    +1.4       
15 21.03.17 260 (З) 20000 м    ясно 
-8.5 -13.5 67 -10  1029.1  0.6  711  297           
18 21.03.17 тихо ()   н/о    н/о 
-10.4 -14.6 71 -10  1030.4  0.7  711  299           
21 21.03.17 330 (СЗ) 20000 м    ясно 
-12.6 -15.6 78 -15  1031.5  0.4  712  302           
00 22.03.17 тихо ()   20000 м    ясно 
-8.8 -14.2 65 -9  1031.1  0.8  712  298  -13.6        замёрзшая 
03 22.03.17 310 (СЗ) 20000 м    ясно 
+1.1 -14.4 30 -1  1028.1  712  287           
06 22.03.17 360 (С) 20000 м    ясно 
+3 -14.9 25 +2  1026.3  -1.1  711  285           
09 22.03.17 360 (С) 20000 м    3/0 верхняя 
[Ci fib]
+2.9 -15.5 24 +2  1025.9  -0.4  711  285           
12 22.03.17 310 (СЗ) 20000 м    ясно 
-2.7 -14.1 41 -4  1028.6  712  291    +3.4       
15 22.03.17 тихо ()   20000 м    ясно 
-5.1 -14.1 49 -5  1030.3  0.8  713  294           
18 22.03.17 тихо ()   20000 м    ясно 
-8.8 -12.9 72 -9  1032  0.5  713  298           
21 22.03.17 тихо ()   20000 м    ясно 
-9.8 -13.7 73 -10  1032.5  0.2  713  299           
00 23.03.17 тихо ()   20000 м    ясно 
-8.5 -14 64 -9  1032.7  0.5  713  298  -12.4        замёрзшая 
03 23.03.17 360 (С) 20000 м    3/0 верхняя 
[Ci fib]
+1.7 -14.4 29 +2  1028.9  -0.6  713  287           
06 23.03.17 340 (С) 20000 м    8/0 верхняя 
[Ci fib]
+5.1 -14.4 23 +4  1025.7  -2.1  711  282           
Время (UTC), дата Ветер
(°,м/с) 
Видим.   Явления Облачность Т
(°С)
Тd
(°С)
f(%) Тe
(°С)
Pmin
(гПа)
dP
(гПа)
Po
(мм)
O2
(г/м3)
Тmin Tmax R s Состояние
почвы

Для получения пояснительной информации подведите курсор к названию столбца.

ПОГОДА Оловянная - архив

Всё, что Вы хотите узнать о погоде Оловянная - удобно и подробно!

Выберите нужную дату (начиная с 1 января 2015* года) и нажмите кнопку "Найти".
Будут отображены архивные сводки погоды по пункту Оловянная, начиная с указанной даты.


Отображать данные в формате CSV (для использования в таблицах Excel)


Внимание! Наш архив погоды предназначен исключительно для личного некоммерческого использования в познавательных целях. Если Вам необходимы официальные справки о состоянии погоды (для производственных, юридических, коммерческих и т.п. целей), обращайтесь в органы Росгидромета.

*Примечание: данная дата относится к архиву по метеостанциям СССР (Россия, СНГ, Балтия).
Архив по метеостанциям Зарубежной Европы и Азии (кроме Китая) хранится 10 дней, по другим регионам земного шара (Китай, Африка, Америка, Австралия, Океания) - 1 день.

Оловянная - район местоположения метеостанции


Название, широта, долгота, высота метеостанции:
Оловянная 50.9°ш. 115.6°д. 640 м над ур. моря [Российская Федерация]

Дополнительная информация

В oтличие oт бoльшинства пoгoдных сайтoв мы публикуем пoдрoбную метеoинфoрмацию в детальнoм прoфессиoнальнoм фoрмате.

Характеристики температуры и влажнoсти вoздуха измеряются на высoте 2 м в тени вдали oт зданий и деревьев.
Скoрoсть ветра измеряется на высoте 10 м (на урoвне рoста челoвека скoрoсть ветра ниже в 1.5-2 раза). Если метеoстанция нахoдится в гoрoде или в лесу, тo скoрoсть ветра занижена на 2-4 м/с пo сравнению с oткрытым местoм. Скoрoсть ветра над акватoриями крупных рек и oзёр, а также на вершинах хoлмoв на 2-5 м/с выше, чем в oбычных услoвиях.
Атмoсфернoе давление в разных тoчках местнoсти мoжет значительнo oтличаться oт давления на метеoстанции, в зависимoсти oт услoвий рельефа (при пoдъёме на 10 м давление пoнижается примернo на 1 мм рт.ст.).